Weather History for Fort Sill, OK

Change the Weather History Date:

Friday, November 22, 2013

  Actual Average Record
Temperature  
Mean Temperature 30 °F -  
Max Temperature 32 °F 61 °F 80 °F (1955)
Min Temperature 27 °F 35 °F 23 °F (1948)
Degree Days  
Heating Degree Days 36    
Moisture  
Dew Point 25 °F    
Average Humidity 82    
Maximum Humidity 93    
Minimum Humidity 67    
Precipitation  
Precipitation 0.06 in - - ()
Sea Level Pressure  
Sea Level Pressure 30.48 in    
Wind  
Wind Speed 24 mph (North)    
Max Wind Speed 33 mph    
Max Gust Speed 43 mph    
Visibility 10 miles    
Events Rain , Snow    
Averages and records for this station are not official NWS values.
T = Trace of Precipitation, MM = Missing Value Source: NWS Daily Summary

Daily Weather History Graph

Daily Weather History Graph

Search for Another Location

Airport:

Trip Planner

Search our weather history database for the weather conditions in past years. The results will help you decide how hot, cold, wet, or windy it might be!

Date:

Astronomy

Nov. 22, 2013 Rise Set
Actual Time 7:14 AM CST 5:25 PM CST
Civil Twilight 6:47 AM CST 5:52 PM CST
Nautical Twilight 6:16 AM CST 6:23 PM CST
Astronomical Twilight 5:46 AM CST 6:53 PM CST
Moon 9:55 PM CST (11/22) 11:01 AM CST (11/22)
Length of Visible Light 11h 05m
Length of Day
10h 10m
Waning Gibbous, 78% of the Moon is Illuminated
Nov 22
Waning Gibbous
Nov 25
Last Quarter
Dec 2
New
Dec 9
First Quarter
Dec 17
Full

Hourly Weather History & Observations

Time (CST) Temp. Windchill Dew Point Humidity Pressure Visibility Wind Dir Wind Speed Gust Speed Precip Events Conditions
12:01 AM 32.0 °F 17.2 °F 24.8 °F 75% 30.35 in 10.0 mi North 32.2 mph 41.4 mph N/A   Overcast
12:58 AM 31.8 °F 17.2 °F 23.5 °F 71% 30.35 in 10.0 mi North 31.1 mph 40.3 mph N/A   Overcast
1:42 AM 32.0 °F 17.6 °F 23.0 °F 69% 30.36 in 10.0 mi North 29.9 mph 38.0 mph N/A   Mostly Cloudy
1:54 AM 32.0 °F 17.0 °F 23.0 °F 69% 30.36 in 10.0 mi North 33.4 mph 41.4 mph N/A   Overcast
1:58 AM 30.7 °F 15.2 °F 22.3 °F 71% 30.36 in 10.0 mi North 33.4 mph 41.4 mph 0.01 in   Mostly Cloudy
2:58 AM 30.7 °F 17.2 °F 21.0 °F 67% 30.40 in 10.0 mi North 24.2 mph 42.6 mph N/A   Overcast
3:58 AM 29.8 °F 14.5 °F 20.5 °F 68% 30.43 in 10.0 mi North 31.1 mph 38.0 mph N/A   Overcast
4:53 AM 28.4 °F 13.0 °F 19.4 °F 69% 30.41 in 10.0 mi North 28.8 mph 42.6 mph N/A   Overcast
4:58 AM 28.9 °F 14.3 °F 19.8 °F 69% 30.44 in 10.0 mi North 26.5 mph 42.6 mph N/A   Overcast
5:07 AM 28.4 °F 13.0 °F 19.4 °F 69% 30.40 in 10.0 mi North 28.8 mph 39.1 mph N/A   Overcast
5:58 AM 28.8 °F 15.9 °F 19.9 °F 70% 30.47 in 10.0 mi North 19.6 mph 40.3 mph N/A   Overcast
6:46 AM 28.4 °F 13.5 °F 19.4 °F 69% 30.46 in 10.0 mi North 26.5 mph 38.0 mph N/A   Overcast
6:58 AM 28.0 °F 13.0 °F 20.8 °F 74% 30.49 in 10.0 mi North 26.5 mph 38.0 mph 0.00 in   Overcast
7:18 AM 28.4 °F 13.8 °F 21.2 °F 74% 30.47 in 10.0 mi North 25.3 mph 36.8 mph N/A   Overcast
7:58 AM 27.7 °F 12.6 °F 21.6 °F 78% 30.51 in 10.0 mi NNE 26.5 mph 35.7 mph 0.00 in   Overcast
8:58 AM 29.1 °F 14.5 °F 21.0 °F 72% 30.50 in 10.0 mi North 26.5 mph 34.5 mph N/A   Overcast
9:08 AM 30.2 °F 15.2 °F 21.2 °F 69% 30.48 in 10.0 mi North 29.9 mph 36.8 mph N/A   Overcast
9:22 AM 28.4 °F 13.0 °F 19.4 °F 69% 30.49 in 10.0 mi North 28.8 mph 38.0 mph N/A   Overcast
9:53 AM 28.4 °F 15.8 °F 19.4 °F 69% 30.52 in 10.0 mi North 18.4 mph 26.5 mph N/A   Overcast
9:58 AM 29.1 °F 16.0 °F 20.1 °F 69% 30.56 in 10.0 mi North 20.7 mph 28.8 mph 0.00 in   Overcast
10:26 AM 28.4 °F 15.8 °F 23.0 °F 80% 30.52 in 10.0 mi North 18.4 mph 28.8 mph N/A   Overcast
10:32 AM 28.4 °F 15.1 °F 23.0 °F 80% 30.53 in 10.0 mi North 20.7 mph 32.2 mph N/A   Overcast
10:43 AM 28.4 °F 15.1 °F 23.0 °F 80% 30.54 in 10.0 mi North 20.7 mph 28.8 mph N/A   Overcast
10:58 AM 29.3 °F 15.9 °F 22.1 °F 75% 30.56 in 10.0 mi North 21.9 mph 28.8 mph 0.00 in   Overcast
11:24 AM 30.2 °F 16.8 °F 23.0 °F 75% 30.50 in 10.0 mi North 23.0 mph 33.4 mph N/A   Overcast
11:31 AM 30.2 °F 15.4 °F 23.0 °F 75% 30.50 in 10.0 mi North 28.8 mph 33.4 mph N/A   Overcast
11:39 AM 30.2 °F 16.2 °F 23.0 °F 75% 30.50 in 10.0 mi North 25.3 mph 33.4 mph N/A   Overcast
11:58 AM 29.3 °F 15.3 °F 24.8 °F 83% 30.51 in 10.0 mi North 24.2 mph 32.2 mph 0.00 in   Light Freezing Rain
12:03 PM 30.2 °F 15.4 °F 24.8 °F 80% 30.47 in 10.0 mi North 28.8 mph 35.7 mph N/A   Overcast
12:12 PM 30.2 °F 15.2 °F 24.8 °F 80% 30.46 in 10.0 mi North 29.9 mph 34.5 mph N/A   Light Freezing Rain
12:19 PM 30.2 °F 16.2 °F 24.8 °F 80% 30.46 in 10.0 mi North 25.3 mph 34.5 mph N/A   Light Freezing Rain
12:20 PM 30.2 °F 15.9 °F 24.8 °F 80% 30.46 in 10.0 mi North 26.5 mph 34.5 mph N/A   Light Freezing Rain
12:22 PM 30.2 °F 15.2 °F 24.8 °F 80% 30.46 in 10.0 mi North 29.9 mph 35.7 mph N/A   Overcast
12:30 PM 30.2 °F 15.4 °F 24.8 °F 80% 30.46 in 10.0 mi North 28.8 mph 35.7 mph N/A   Overcast
12:34 PM 30.2 °F 15.9 °F 24.8 °F 80% 30.46 in 10.0 mi North 26.5 mph 35.7 mph N/A   Overcast
12:38 PM 30.2 °F 17.1 °F 24.8 °F 80% 30.48 in 10.0 mi North 21.9 mph 35.7 mph N/A   Overcast
12:39 PM 30.2 °F 15.9 °F 24.8 °F 80% 30.48 in 10.0 mi North 26.5 mph 34.5 mph N/A   Overcast
12:43 PM 30.2 °F 16.8 °F 23.0 °F 75% 30.48 in 10.0 mi North 23.0 mph 34.5 mph N/A   Overcast
12:48 PM 30.2 °F 16.8 °F 23.0 °F 75% 30.48 in 10.0 mi North 23.0 mph 34.5 mph N/A   Overcast
12:50 PM 30.2 °F 17.4 °F 23.0 °F 75% 30.49 in 10.0 mi North 20.7 mph 34.5 mph N/A   Overcast
12:58 PM 29.7 °F 15.5 °F 24.1 °F 80% 30.51 in 10.0 mi North 25.3 mph 33.4 mph 0.00 in   Overcast
1:50 PM 30.2 °F 16.5 °F 26.6 °F 86% 30.46 in 10.0 mi North 24.2 mph 28.8 mph N/A Rain Light Freezing Rain
1:58 PM 29.5 °F 16.8 °F 26.1 °F 87% 30.49 in 10.0 mi North 19.6 mph 28.8 mph 0.00 in Rain Light Freezing Rain
2:10 PM 30.2 °F 17.1 °F 26.6 °F 86% 30.45 in 10.0 mi NNE 21.9 mph 29.9 mph N/A   Overcast
2:12 PM 30.2 °F 17.1 °F 26.6 °F 86% 30.45 in 10.0 mi NNE 21.9 mph 28.8 mph N/A Rain Light Freezing Rain
2:45 PM 30.2 °F 16.5 °F 26.6 °F 86% 30.45 in 10.0 mi NNE 24.2 mph 32.2 mph N/A   Overcast
2:51 PM 30.2 °F 17.8 °F 26.6 °F 86% 30.46 in 10.0 mi NNE 19.6 mph 29.9 mph N/A Rain Light Freezing Rain
2:54 PM 30.2 °F 18.5 °F 26.6 °F 86% 30.46 in 10.0 mi North 17.3 mph 29.9 mph N/A Rain Light Freezing Rain
2:58 PM 30.2 °F 17.1 °F 27.1 °F 88% 30.49 in 10.0 mi North 21.9 mph 27.6 mph 0.00 in Rain Light Freezing Rain
3:02 PM 30.2 °F 18.1 °F 26.6 °F 86% 30.46 in 10.0 mi North 18.4 mph 27.6 mph N/A Rain Light Freezing Rain
3:08 PM 30.2 °F 18.5 °F 26.6 °F 86% 30.47 in 10.0 mi North 17.3 mph 25.3 mph N/A Rain Light Freezing Rain
3:21 PM 32.0 °F 19.5 °F 28.4 °F 87% 30.46 in 10.0 mi North 21.9 mph 27.6 mph N/A Rain Light Freezing Rain
3:27 PM 32.0 °F 21.2 °F 28.4 °F 87% 30.46 in 10.0 mi NNE 16.1 mph 26.5 mph N/A Rain Light Freezing Rain
3:43 PM 32.0 °F 22.1 °F 28.4 °F 87% 30.47 in 10.0 mi North 13.8 mph 25.3 mph N/A Rain Light Freezing Rain
3:44 PM 32.0 °F 22.1 °F 28.4 °F 87% 30.47 in 10.0 mi NNE 13.8 mph 25.3 mph N/A Rain Light Freezing Rain
3:45 PM 32.0 °F 22.1 °F 28.4 °F 87% 30.47 in 10.0 mi NNE 13.8 mph 25.3 mph N/A Rain Light Freezing Rain
3:58 PM 30.2 °F 18.9 °F 28.4 °F 93% 30.50 in 10.0 mi North 16.1 mph 27.6 mph 0.03 in Rain Light Freezing Rain
4:01 PM 30.2 °F 18.9 °F 28.4 °F 93% 30.46 in 10.0 mi NNE 16.1 mph 27.6 mph N/A Snow Light Snow
4:05 PM 30.2 °F 19.3 °F 26.6 °F 86% 30.46 in 10.0 mi NNE 15.0 mph 28.8 mph N/A Rain Light Freezing Rain
4:09 PM 30.2 °F 19.3 °F 28.4 °F 93% 30.47 in 10.0 mi North 15.0 mph 28.8 mph N/A Rain Light Freezing Rain
4:17 PM 30.2 °F 18.9 °F 28.4 °F 93% 30.47 in 10.0 mi North 16.1 mph 27.6 mph N/A Rain Light Freezing Rain
4:31 PM 30.2 °F 19.8 °F 26.6 °F 86% 30.47 in 10.0 mi North 13.8 mph 24.2 mph N/A Rain Light Freezing Rain
4:58 PM 29.1 °F 18.4 °F 26.6 °F 90% 30.51 in 10.0 mi NNE 13.8 mph 24.2 mph 0.00 in Rain Light Freezing Rain
4:59 PM 28.4 °F 17.5 °F 26.6 °F 93% 30.47 in 10.0 mi NNE 13.8 mph 24.2 mph N/A Rain Light Freezing Rain
5:15 PM 28.4 °F 16.6 °F 26.6 °F 93% 30.48 in 10.0 mi North 16.1 mph 25.3 mph N/A Rain Light Freezing Rain
5:55 PM 28.4 °F 16.6 °F 24.8 °F 86% 30.48 in 10.0 mi North 16.1 mph 25.3 mph N/A   Overcast
5:58 PM 28.4 °F 16.6 °F 25.7 °F 90% 30.52 in 10.0 mi North 16.1 mph 25.3 mph 0.00 in   Overcast
6:00 PM 28.4 °F 16.6 °F 24.8 °F 86% 30.49 in 10.0 mi North 16.1 mph 25.3 mph N/A   Overcast
6:10 PM 28.4 °F 17.0 °F 26.6 °F 93% 30.49 in 10.0 mi NNE 15.0 mph 27.6 mph N/A   Overcast
6:37 PM 28.4 °F 17.0 °F 26.6 °F 93% 30.49 in 7.0 mi NNE 15.0 mph 25.3 mph N/A Rain Light Freezing Rain
6:58 PM 28.8 °F 16.2 °F 26.1 °F 90% 30.53 in 10.0 mi North 18.4 mph 28.8 mph 0.01 in   Overcast
6:59 PM 28.4 °F 16.6 °F 26.6 °F 93% 30.49 in 10.0 mi NNE 16.1 mph 28.8 mph N/A   Overcast
7:19 PM 28.4 °F 16.6 °F 26.6 °F 93% 30.50 in 10.0 mi North 16.1 mph 26.5 mph N/A   Overcast
7:26 PM 28.4 °F 17.0 °F 26.6 °F 93% 30.50 in 10.0 mi North 15.0 mph 25.3 mph N/A   Light Freezing Drizzle
7:27 PM 28.4 °F 17.0 °F 26.6 °F 93% 30.50 in 10.0 mi NNE 15.0 mph 25.3 mph N/A   Light Freezing Drizzle
7:41 PM 30.2 °F 19.8 °F 26.6 °F 86% 30.50 in 10.0 mi NNE 13.8 mph 20.7 mph N/A Rain Light Freezing Rain
7:52 PM 30.2 °F 19.3 °F 26.6 °F 86% 30.50 in 10.0 mi NNE 15.0 mph 25.3 mph N/A Rain Light Freezing Rain
7:58 PM 30.2 °F 19.3 °F 27.7 °F 90% 30.55 in 10.0 mi North 15.0 mph 26.5 mph 0.00 in Rain Light Freezing Rain
8:00 PM 30.2 °F 19.3 °F 28.4 °F 93% 30.51 in 9.0 mi North 15.0 mph 26.5 mph N/A Rain Light Freezing Rain
8:13 PM 30.2 °F 19.3 °F 26.6 °F 86% 30.50 in 10.0 mi North 15.0 mph 24.2 mph N/A Rain Light Freezing Rain
8:20 PM 30.2 °F 19.8 °F 26.6 °F 86% 30.50 in 10.0 mi North 13.8 mph 24.2 mph N/A Rain Light Freezing Rain
8:23 PM 30.2 °F 19.8 °F 26.6 °F 86% 30.50 in 10.0 mi North 13.8 mph 24.2 mph N/A Rain Light Freezing Rain
8:29 PM 28.4 °F 16.6 °F 26.6 °F 93% 30.51 in 10.0 mi North 16.1 mph 25.3 mph N/A Rain Light Freezing Rain
8:48 PM 28.4 °F 18.0 °F 26.6 °F 93% 30.51 in 10.0 mi North 12.7 mph 23.0 mph N/A Rain Light Freezing Rain
8:51 PM 28.4 °F 18.0 °F 26.6 °F 93% 30.51 in 10.0 mi North 12.7 mph 23.0 mph N/A   Overcast
8:58 PM 28.4 °F 17.5 °F 24.8 °F 86% 30.55 in 10.0 mi North 13.8 mph 24.2 mph 0.01 in   Overcast
9:10 PM 28.4 °F 17.5 °F 24.8 °F 86% 30.52 in 10.0 mi North 13.8 mph 28.8 mph N/A   Overcast
9:58 PM 28.9 °F 18.2 °F 25.0 °F 85% 30.55 in 10.0 mi North 13.8 mph 20.7 mph N/A   Overcast
10:58 PM 29.3 °F - 25.0 °F 84% 30.55 in 10.0 mi NNE 2.3 mph - N/A   Overcast
11:58 PM 29.7 °F 26.1 °F 25.5 °F 85% 30.55 in 10.0 mi North 3.5 mph - N/A   Overcast